Flag for Canada Weather past 2 weeks in Calgary, Alberta, Canada

Now
7 °F

Light snow. Cloudy.


Feels Like: -2 °F
Forecast: 7 / 21 °F
Wind: 5 mph from Northeast

Location: Calgary International

Current Time: Jan 31, 2015 at 1:04:02 PM

Latest Report: Jan 31, 2015 at 12:00 PM


Visibility: 10 mi

Pressure: 30.60 "Hg

Humidity: 78%

Dew point: 1 °F

Location of CalgaryLocation

Historic Weather in Calgary — Graph

°F

Calgary temperature yesterday

Maximum temperature yesterday: 39 °F (at 1:00 PM)
Minimum temperature yesterday: 21 °F (at 8:00 AM)
Average temperature yesterday: 29 °F

Past Weeks' High & Low Weather Summary

 TemperatureHumidityPressure
High63 °F (Jan 25, 3:00 PM)100% (Jan 30, 10:00 PM)30.60 "Hg (Jan 30, 10:00 PM)
Low7 °F (Jan 31, 7:00 AM)21% (Jan 29, 8:00 PM)29.55 "Hg (Jan 16, 12:00 PM)
Average38 °F53%30.04 "Hg
* Reported Jan 16 12:00 Noon — Jan 31 12:00 Noon, Calgary, Weather by CustomWeather, © 2014

Note: Actual official high and low records may vary slightly from our data, if they occured in-between our weather recording intervals... More about our weather records

Advertising

Calgary weather history for previous 24 hours

 ConditionsComfort  
Time TempWeatherWind HumidityBarometerVisibility
12:00 PM
Jan 31
7 °FLight snow. Cloudy.5 mph78%30.60 "Hg10 mi
11:00 AM7 °FMostly cloudy.7 mph72%30.60 "Hg8 mi
10:00 AM7 °FLight snow. Cloudy.6 mph78%30.59 "Hg5 mi
9:00 AM7 °FLight snow. Broken clouds.9 mph78%30.58 "Hg4 mi
8:00 AM7 °FLight snow. Mostly cloudy.13 mph78%30.58 "Hg3 mi
7:00 AM7 °FLight snow. Overcast.15 mph85%30.55 "Hg2 mi
6:00 AM9 °FLight snow. Low clouds.20 mph78%30.53 "Hg1 mi
5:00 AM10 °FLight snow. Low clouds.16 mph79%30.50 "Hg1 mi
4:00 AM12 °FLight snow. Ice fog.18 mph85%30.46 "Hg1 mi
3:00 AM14 °FCold.20 mph85%30.42 "Hg1 mi
2:52 AM14 °FCold.16 mph92%30.41 "Hg1 mi
2:00 AM16 °FCold.17 mph86%30.37 "Hg1 mi
1:00 AM18 °FLight snow. Mostly cloudy.17 mph86%30.35 "Hg3 mi
12:00 AM19 °FLight snow. Low clouds.16 mph93%30.35 "Hg2 mi
11:00 PM
Jan 30
21 °FLight snow. Ice fog.13 mph93%30.33 "Hg3 mi
10:00 PM25 °FCold.14 mph100%30.29 "Hg1 mi
9:00 PM27 °FIce fog.13 mph93%30.30 "Hg1 mi
8:00 PM28 °FIce fog.16 mph93%30.30 "Hg1 mi
7:00 PM28 °FMostly cloudy.17 mph93%30.27 "Hg15 mi
6:00 PM28 °FPartly cloudy.13 mph86%30.25 "Hg15 mi
5:00 PM32 °FPartly sunny.9 mph69%30.20 "Hg30 mi
4:00 PM36 °FBroken clouds.9 mph56%30.22 "Hg40 mi
3:00 PM36 °FBroken clouds.10 mph56%30.23 "Hg40 mi
2:00 PM36 °FPartly sunny.14 mph41%30.26 "Hg40 mi
1:00 PM39 °FPartly sunny.8 mph36%30.29 "Hg40 mi
Weather by CustomWeather, © 2014

See weather overviewHow to use our weather pages